Weather History for KDZB - December, 2013

Change the Weather History Date:

Monday, December 16, 2013

  Actual Average (KBMQ) Record (KBMQ)
Temperature  
Mean Temperature 48 °F -  
Max Temperature 69 °F 57 °F 77 °F (2006)
Min Temperature 28 °F 35 °F 24 °F (1999)
Degree Days  
Heating Degree Days 16    
Moisture  
Dew Point 31 °F    
Average Humidity 60    
Maximum Humidity 100    
Minimum Humidity 23    
Precipitation  
Precipitation 0.00 in - - ()
Sea Level Pressure  
Sea Level Pressure 30.23 in    
Wind  
Wind Speed 2 mph (SSW)    
Max Wind Speed 8 mph    
Max Gust Speed -    
Visibility 10 miles    
Events      
Averages and records for this station are not official NWS values.
T = Trace of Precipitation, MM = Missing Value Source: NWS Daily Summary

Daily Weather History Graph

Daily Weather History Graph

Search for Another Location

Airport or City:

Trip Planner

Search our weather history database for the weather conditions in past years. The results will help you decide how hot, cold, wet, or windy it might be!

Date:

Astronomy

Dec. 16, 2013 Rise Set
Actual Time 6:23 AM MST 4:34 PM MST
Civil Twilight 5:57 AM MST 5:01 PM MST
Nautical Twilight 5:27 AM MST 5:31 PM MST
Astronomical Twilight 4:57 AM MST 6:00 PM MST
Moon 4:22 PM MST (12/16) 5:37 AM MST (12/16)
Length of Visible Light 11h 04m
Length of Day
10h 10m
Full, 100% of the Moon is Illuminated
Dec 16
Full
Dec 17
Full
Dec 25
Last Quarter
Jan 1
New
Jan 7
First Quarter

Hourly Weather History & Observations

Time (MST) Temp. Windchill Dew Point Humidity Pressure Visibility Wind Dir Wind Speed Gust Speed Precip Events Conditions
12:15 AM 32.0 °F - 28.4 °F 87% 30.27 in 10.0 mi Calm Calm - N/A   Clear
12:35 AM 31.5 °F - 28.2 °F 88% 30.27 in 10.0 mi Calm Calm - N/A   Clear
12:55 AM 30.9 °F - 28.2 °F 90% 30.27 in 10.0 mi Calm Calm - N/A   Clear
1:15 AM 30.7 °F - 28.8 °F 92% 30.27 in 10.0 mi Calm Calm - N/A   Clear
1:35 AM 30.6 °F - 28.9 °F 94% 30.27 in 10.0 mi Calm Calm - N/A   Clear
1:55 AM 30.0 °F - 28.8 °F 95% 30.27 in 10.0 mi Calm Calm - N/A   Clear
2:15 AM 29.8 °F - 29.5 °F 99% 30.27 in 10.0 mi Calm Calm - N/A   Clear
2:35 AM 29.8 °F - 29.8 °F 100% 30.27 in 10.0 mi Calm Calm - N/A   Clear
2:55 AM 29.3 °F - 29.3 °F 100% 30.27 in 10.0 mi Calm Calm - N/A   Clear
3:15 AM 29.3 °F - 29.3 °F 100% 30.27 in 10.0 mi Calm Calm - N/A   Clear
3:35 AM 29.3 °F - 29.3 °F 100% 30.26 in 10.0 mi Calm Calm - N/A   Clear
3:55 AM 29.3 °F - 29.3 °F 100% 30.26 in 10.0 mi Calm Calm - N/A   Clear
4:15 AM 29.1 °F - 29.1 °F 100% 30.26 in 10.0 mi Calm Calm - N/A   Clear
4:35 AM 29.3 °F - 29.3 °F 100% 30.25 in 10.0 mi Calm Calm - N/A   Clear
4:55 AM 29.3 °F - 29.3 °F 100% 30.27 in 10.0 mi Calm Calm - N/A   Clear
5:15 AM 28.9 °F - 28.9 °F 100% 30.27 in 10.0 mi Calm Calm - N/A   Clear
5:35 AM 29.7 °F 26.1 °F 29.7 °F 100% 30.26 in 10.0 mi South 3.5 mph - N/A   Clear
5:55 AM 29.3 °F - 29.3 °F 100% 30.26 in 10.0 mi Calm Calm - N/A   Clear
6:15 AM 29.8 °F 26.3 °F 29.8 °F 100% 30.26 in 10.0 mi South 3.5 mph - N/A   Clear
6:35 AM 28.9 °F - 28.4 °F 98% 30.26 in 10.0 mi Calm Calm - N/A   Clear
6:55 AM 30.4 °F - 30.4 °F 100% 30.27 in 10.0 mi Calm Calm - N/A   Clear
7:15 AM 34.9 °F - 32.5 °F 91% 30.27 in 10.0 mi Calm Calm - N/A   Clear
7:35 AM 39.9 °F - 33.4 °F 78% 30.28 in 10.0 mi Calm Calm - N/A   Clear
7:55 AM 41.0 °F - 34.2 °F 77% 30.28 in 10.0 mi Calm Calm - N/A   Clear
8:15 AM 47.5 °F - 34.3 °F 60% 30.28 in 10.0 mi Calm Calm - N/A   Clear
8:35 AM 52.9 °F - 31.1 °F 43% 30.28 in 10.0 mi Calm Calm - N/A   Clear
8:55 AM 54.7 °F - 30.2 °F 39% 30.28 in 10.0 mi SSW 4.6 mph - N/A   Clear
9:15 AM 54.3 °F - 33.3 °F 45% 30.28 in 10.0 mi Calm Calm - N/A   Clear
9:35 AM 52.9 °F - 34.0 °F 49% 30.28 in 10.0 mi North 3.5 mph - N/A   Clear
9:55 AM 55.6 °F - 35.8 °F 47% 30.27 in 10.0 mi NNW 3.5 mph - N/A   Clear
10:15 AM 59.5 °F - 32.9 °F 37% 30.27 in 10.0 mi Calm Calm - N/A   Clear
10:35 AM 63.0 °F - 30.0 °F 29% 30.26 in 10.0 mi South 5.8 mph - N/A   Clear
10:55 AM 64.2 °F - 30.7 °F 29% 30.25 in 10.0 mi SSW 3.5 mph - N/A   Clear
11:15 AM 65.5 °F - 30.9 °F 27% 30.24 in 10.0 mi SSW 6.9 mph - N/A   Clear
11:35 AM 65.8 °F - 30.4 °F 27% 30.22 in 10.0 mi WSW 6.9 mph - N/A   Clear
11:55 AM 67.8 °F - 31.1 °F 26% 30.21 in 10.0 mi SSW 6.9 mph - N/A   Clear
12:15 PM 68.0 °F - 30.7 °F 25% 30.20 in 10.0 mi SSW 6.9 mph - N/A   Clear
12:35 PM 68.9 °F - 30.4 °F 24% 30.19 in 10.0 mi SSW 8.1 mph - N/A   Clear
12:55 PM 68.9 °F - 30.6 °F 24% 30.18 in 10.0 mi South 5.8 mph - N/A   Clear
1:15 PM 68.2 °F - 29.7 °F 24% 30.18 in 10.0 mi SW 4.6 mph - N/A   Clear
1:35 PM 69.1 °F - 30.6 °F 24% 30.18 in 10.0 mi WSW 5.8 mph - N/A   Clear
1:55 PM 69.1 °F - 29.5 °F 23% 30.17 in 10.0 mi SSW 4.6 mph - N/A   Clear
2:15 PM 69.1 °F - 29.8 °F 23% 30.17 in 10.0 mi SSW 3.5 mph - N/A   Clear
2:35 PM 68.9 °F - 29.8 °F 23% 30.17 in 10.0 mi SSW 3.5 mph - N/A   Clear
2:55 PM 68.5 °F - 30.0 °F 24% 30.17 in 10.0 mi SSW 5.8 mph - N/A   Clear
3:15 PM 67.5 °F - 30.6 °F 25% 30.17 in 10.0 mi SSW 4.6 mph - N/A   Clear
3:35 PM 67.1 °F - 30.7 °F 26% 30.17 in 10.0 mi SSW 4.6 mph - N/A   Clear
3:55 PM 65.5 °F - 30.2 °F 27% 30.17 in 10.0 mi South 4.6 mph - N/A   Clear
4:15 PM 63.5 °F - 31.3 °F 30% 30.17 in 10.0 mi South 4.6 mph - N/A   Clear
4:35 PM 59.4 °F - 32.0 °F 36% 30.17 in 10.0 mi South 3.5 mph - N/A   Clear
4:55 PM 53.8 °F - 33.6 °F 46% 30.17 in 10.0 mi South 3.5 mph - N/A   Clear
5:15 PM 50.9 °F - 34.5 °F 54% 30.18 in 10.0 mi South 3.5 mph - N/A   Clear
5:35 PM 53.1 °F - 33.4 °F 47% 30.18 in 10.0 mi South 5.8 mph - N/A   Clear
5:55 PM 53.6 °F - 32.9 °F 45% 30.19 in 10.0 mi South 4.6 mph - N/A   Clear
6:15 PM 54.3 °F - 32.9 °F 44% 30.19 in 10.0 mi South 6.9 mph - N/A   Clear
6:35 PM 54.9 °F - 32.5 °F 43% 30.19 in 10.0 mi South 5.8 mph - N/A   Clear
6:55 PM 54.5 °F - 32.4 °F 43% 30.20 in 10.0 mi South 5.8 mph - N/A   Clear
7:15 PM 54.1 °F - 32.4 °F 44% 30.21 in 10.0 mi Calm Calm - N/A   Clear
7:35 PM 53.1 °F - 32.4 °F 45% 30.20 in 10.0 mi South 4.6 mph - N/A   Clear
7:55 PM 54.0 °F - 32.0 °F 43% 30.20 in 10.0 mi SSW 5.8 mph - N/A   Clear
8:15 PM 53.6 °F - 31.8 °F 44% 30.21 in 10.0 mi Calm Calm - N/A   Clear
8:35 PM 52.7 °F - 31.8 °F 45% 30.23 in 10.0 mi Calm Calm - N/A   Clear
8:55 PM 49.3 °F - 32.0 °F 51% 30.23 in 10.0 mi Calm Calm - N/A   Clear
9:15 PM 51.1 °F - 31.8 °F 48% 30.23 in 10.0 mi SSW 3.5 mph - N/A   Clear
9:35 PM 50.5 °F - 31.5 °F 48% 30.23 in 10.0 mi Calm Calm - N/A   Clear
9:55 PM 45.0 °F - 32.0 °F 60% 30.24 in 10.0 mi Calm Calm - N/A   Clear
10:15 PM 43.7 °F - 32.0 °F 63% 30.24 in 10.0 mi Calm Calm - N/A   Clear
10:55 PM 39.4 °F - 32.0 °F 75% 30.23 in 10.0 mi Calm Calm - N/A   Clear
11:15 PM 38.3 °F - 31.6 °F 77% 30.22 in 10.0 mi Calm Calm - N/A   Clear
11:35 PM 37.4 °F - 31.6 °F 80% 30.23 in 10.0 mi Calm Calm - N/A   Clear
11:55 PM 39.2 °F - 32.0 °F 75% 30.23 in 10.0 mi Calm Calm - N/A   Clear